,,,PA_Meas_PMT16A,,PR_Meas_QMR101_102,,RH_Meas_QMH101,,SR_Meas_QMS101,,TA_Meas_QMH101,,GenWind,,GenWind,
date,time,status,PA,status,PR,status,RH,status,SR,status,TA,status,DirAvg,status,SpdAvg,
2010-04-01, 00:00:04,VALID,1002.56,VALID,0,VALID,93.3713,VALID,0,VALID,23.9921,VALID,74,VALID,0,
2010-04-01, 00:01:04,VALID,1002.54,VALID,0,VALID,93.4247,VALID,0,VALID,24.0134,VALID,74,VALID,0,
2010-04-01, 00:02:04,VALID,1002.53,VALID,0,VALID,93.4705,VALID,0,VALID,24.0525,VALID,74,VALID,0,
2010-04-01, 00:03:04,VALID,1002.51,VALID,0,VALID,93.4705,VALID,0,VALID,24.0525,VALID,74,VALID,0,
2010-04-01, 00:04:04,VALID,1002.5,VALID,0,VALID,93.4781,VALID,0,VALID,24.0525,VALID,77,VALID,0,
2010-04-01, 00:05:04,VALID,1002.49,VALID,0,VALID,93.4705,VALID,0,VALID,24.072,VALID,77,VALID,0,
2010-04-01, 00:06:04,VALID,1002.49,VALID,0,VALID,93.4781,VALID,0,VALID,24.072,VALID,86,VALID,0,
2010-04-01, 00:07:04,VALID,1002.47,VALID,0,VALID,93.4552,VALID,0,VALID,24.072,VALID,86,VALID,0,
2010-04-01, 00:08:04,VALID,1002.44,VALID,0,VALID,93.4628,VALID,0,VALID,24.072,VALID,86,VALID,0,
2010-04-01, 00:09:04,VALID,1002.46,VALID,0,VALID,93.4628,VALID,0,VALID,24.072,VALID,86,VALID,0,
2010-04-01, 00:10:04,VALID,1002.46,VALID,0,VALID,93.4628,VALID,0,VALID,24.0525,VALID,86,VALID,0,
2010-04-01, 00:11:04,VALID,1002.45,VALID,0,VALID,93.44,VALID,0,VALID,24.0525,VALID,86,VALID,0,
2010-04-01, 00:12:04,VALID,1002.45,VALID,0,VALID,93.4552,VALID,0,VALID,24.0329,VALID,86,VALID,0,
2010-04-01, 00:13:04,VALID,1002.49,VALID,0,VALID,93.4247,VALID,0,VALID,24.0543,VALID,86,VALID,0,
2010-04-01, 00:14:04,VALID,1002.44,VALID,0,VALID,93.44,VALID,0,VALID,23.9921,VALID,86,VALID,0,
2010-04-01, 00:15:04,VALID,1002.43,VALID,0,VALID,93.4552,VALID,0,VALID,23.9726,VALID,51,VALID,0,
2010-04-01, 00:16:04,VALID,1002.41,VALID,0,VALID,93.4705,VALID,0,VALID,23.9921,VALID,48,VALID,0,
2010-04-01, 00:17:04,VALID,1002.4,VALID,0,VALID,93.4705,VALID,0,VALID,24.0134,VALID,48,VALID,0,
2010-04-01, 00:18:04,VALID,1002.39,VALID,0,VALID,93.4781,VALID,0,VALID,23.9921,VALID,48,VALID,0,
2010-04-01, 00:19:04,VALID,1002.37,VALID,0,VALID,93.4781,VALID,0,VALID,24.0134,VALID,48,VALID,0,
2010-04-01, 00:20:04,VALID,1002.37,VALID,0,VALID,93.4857,VALID,0,VALID,24.0329,VALID,48,VALID,0,
2010-04-01, 00:21:04,VALID,1002.37,VALID,0,VALID,93.4934,VALID,0,VALID,24.0116,VALID,48,VALID,0,
2010-04-01, 00:22:04,VALID,1002.39,VALID,0,VALID,93.4628,VALID,0,VALID,24.0116,VALID,48,VALID,0,
2010-04-01, 00:23:04,VALID,1002.36,VALID,0,VALID,93.501,VALID,0,VALID,24.0116,VALID,47,VALID,0,
2010-04-01, 00:24:04,VALID,1002.37,VALID,0,VALID,93.5239,VALID,0,VALID,24.0525,VALID,47,VALID,0,
2010-04-01, 00:25:04,VALID,1002.36,VALID,0,VALID,93.5544,VALID,0,VALID,24.0701,VALID,47,VALID,0,
2010-04-01, 00:26:04,VALID,1002.38,VALID,0,VALID,93.5391,VALID,0,VALID,24.111,VALID,47,VALID,0,
2010-04-01, 00:27:04,VALID,1002.35,VALID,0,VALID,93.5468,VALID,0,VALID,24.1305,VALID,47,VALID,0,
2010-04-01, 00:28:04,VALID,1002.29,VALID,0,VALID,93.5697,VALID,0,VALID,24.1287,VALID,47,VALID,0,
2010-04-01, 00:29:04,VALID,1002.29,VALID,0,VALID,93.5773,VALID,0,VALID,24.1891,VALID,47,VALID,0,
2010-04-01, 00:30:04,VALID,1002.29,VALID,0,VALID,93.6002,VALID,0,VALID,24.1677,VALID,47,VALID,0,
2010-04-01, 00:31:04,VALID,1002.24,VALID,0,VALID,93.5926,VALID,0,VALID,24.2067,VALID,48,VALID,0,
2010-04-01, 00:32:04,VALID,1002.27,VALID,0,VALID,93.5849,VALID,0,VALID,24.2281,VALID,62,VALID,0,
2010-04-01, 00:33:04,VALID,1002.27,VALID,0,VALID,93.5544,VALID,0,VALID,24.2281,VALID,62,VALID,0,
2010-04-01, 00:34:04,VALID,1002.29,VALID,0,VALID,93.5391,VALID,0,VALID,24.2263,VALID,62,VALID,0,
2010-04-01, 00:35:04,VALID,1002.3,VALID,0,VALID,93.5391,VALID,0,VALID,24.2067,VALID,62,VALID,0,
2010-04-01, 00:36:04,VALID,1002.32,VALID,0,VALID,93.5391,VALID,0,VALID,24.2263,VALID,62,VALID,0,
2010-04-01, 00:37:04,VALID,1002.31,VALID,0,VALID,93.5391,VALID,0,VALID,24.2458,VALID,62,VALID,0,
2010-04-01, 00:38:04,VALID,1002.33,VALID,0,VALID,93.5315,VALID,0,VALID,24.2671,VALID,62,VALID,0,
2010-04-01, 00:39:04,VALID,1002.33,VALID,0,VALID,93.501,VALID,0,VALID,24.2671,VALID,62,VALID,0,
2010-04-01, 00:40:04,VALID,1002.3,VALID,0,VALID,93.5391,VALID,0,VALID,24.2458,VALID,62,VALID,0,
2010-04-01, 00:41:04,VALID,1002.32,VALID,0,VALID,93.5468,VALID,0,VALID,24.2671,VALID,98,VALID,0,
2010-04-01, 00:42:04,VALID,1002.35,VALID,0,VALID,93.5315,VALID,0,VALID,24.2671,VALID,129,VALID,0,
2010-04-01, 00:43:04,VALID,1002.36,VALID,0,VALID,93.4781,VALID,0,VALID,24.2476,VALID,118,VALID,0.936719,
2010-04-01, 00:44:04,VALID,1002.35,VALID,0,VALID,93.4781,VALID,0,VALID,24.2067,VALID,123,VALID,0.836328,
2010-04-01, 00:45:04,VALID,1002.36,VALID,0,VALID,93.501,VALID,0,VALID,24.2263,VALID,123,VALID,0.653125,
2010-04-01, 00:46:04,VALID,1002.31,VALID,0,VALID,93.4857,VALID,0,VALID,24.2476,VALID,123,VALID,0.651172,
2010-04-01, 00:47:04,VALID,1002.31,VALID,0,VALID,93.501,VALID,0,VALID,24.2263,VALID,123,VALID,0.683203,
2010-04-01, 00:48:04,VALID,1002.3,VALID,0,VALID,93.501,VALID,0,VALID,24.2476,VALID,123,VALID,0.590625,
2010-04-01, 00:49:04,VALID,1002.28,VALID,0,VALID,93.4781,VALID,0,VALID,24.2263,VALID,124,VALID,0.453906,
2010-04-01, 00:50:04,VALID,1002.26,VALID,0,VALID,93.4705,VALID,0,VALID,24.2067,VALID,124,VALID,0.212109,
2010-04-01, 00:51:04,VALID,1002.26,VALID,0,VALID,93.44,VALID,0,VALID,24.2086,VALID,124,VALID,0,
2010-04-01, 00:52:04,VALID,1002.21,VALID,0,VALID,93.3789,VALID,0,VALID,24.1891,VALID,124,VALID,0,
2010-04-01, 00:53:04,VALID,1002.24,VALID,0,VALID,93.3942,VALID,0,VALID,24.1696,VALID,123,VALID,0.379687,
2010-04-01, 00:54:04,VALID,1002.16,VALID,0,VALID,93.356,VALID,0,VALID,24.15,VALID,122,VALID,0.0285156,
2010-04-01, 00:55:04,VALID,1002.13,VALID,0,VALID,93.3942,VALID,0,VALID,24.1092,VALID,122,VALID,0,
2010-04-01, 00:56:04,VALID,1002.14,VALID,0,VALID,93.4094,VALID,0,VALID,24.1305,VALID,122,VALID,0,
2010-04-01, 00:57:04,VALID,1002.1,VALID,0,VALID,93.4171,VALID,0,VALID,24.111,VALID,122,VALID,0,
2010-04-01, 00:58:04,VALID,1002.1,VALID,0,VALID,93.4094,VALID,0,VALID,24.111,VALID,122,VALID,0,
2010-04-01, 00:59:04,VALID,1002.08,VALID,0,VALID,93.44,VALID,0,VALID,24.0897,VALID,122,VALID,0,
2010-04-01, 01:00:04,VALID,1002.1,VALID,0,VALID,93.4323,VALID,0,VALID,24.111,VALID,122,VALID,0,
2010-04-01, 01:01:04,VALID,1002.08,VALID,0,VALID,93.4094,VALID,0,VALID,24.0915,VALID,122,VALID,0,
2010-04-01, 01:02:04,VALID,1002.07,VALID,0,VALID,93.4247,VALID,0,VALID,24.111,VALID,122,VALID,0,
2010-04-01, 01:03:04,VALID,1002.02,VALID,0,VALID,93.4628,VALID,0,VALID,24.0897,VALID,122,VALID,0,
2010-04-01, 01:04:04,VALID,1002.05,VALID,0,VALID,93.4323,VALID,0,VALID,24.0701,VALID,122,VALID,0,
2010-04-01, 01:05:04,VALID,1002.02,VALID,0,VALID,93.3866,VALID,0,VALID,24.0506,VALID,122,VALID,0,
2010-04-01, 01:06:04,VALID,1002.02,VALID,0,VALID,93.3713,VALID,0,VALID,24.0525,VALID,122,VALID,0,
2010-04-01, 01:07:04,VALID,1002,VALID,0,VALID,93.3866,VALID,0,VALID,24.0116,VALID,122,VALID,0,
2010-04-01, 01:08:04,VALID,1002.01,VALID,0,VALID,93.3789,VALID,0,VALID,24.0329,VALID,122,VALID,0,
2010-04-01, 01:09:04,VALID,1001.98,VALID,0,VALID,93.3637,VALID,0,VALID,23.9921,VALID,122,VALID,0,
2010-04-01, 01:10:04,VALID,1001.99,VALID,0,VALID,93.4247,VALID,0,VALID,23.9921,VALID,122,VALID,0,
2010-04-01, 01:11:04,VALID,1002,VALID,0,VALID,93.4552,VALID,0,VALID,24.0329,VALID,122,VALID,0,
2010-04-01, 01:12:04,VALID,1001.99,VALID,0,VALID,93.44,VALID,0,VALID,24.0329,VALID,122,VALID,0,
2010-04-01, 01:13:04,VALID,1001.99,VALID,0,VALID,93.4323,VALID,0,VALID,24.0311,VALID,122,VALID,0,
2010-04-01, 01:14:04,VALID,1002,VALID,0,VALID,93.44,VALID,0,VALID,24.0506,VALID,122,VALID,0,
2010-04-01, 01:15:04,VALID,1001.97,VALID,0,VALID,93.4628,VALID,0,VALID,24.0701,VALID,122,VALID,0,
2010-04-01, 01:16:04,VALID,1001.96,VALID,0,VALID,93.4171,VALID,0,VALID,24.0915,VALID,122,VALID,0,
2010-04-01, 01:17:04,VALID,1001.97,VALID,0,VALID,93.4628,VALID,0,VALID,24.0506,VALID,122,VALID,0,
2010-04-01, 01:18:04,VALID,1001.99,VALID,0,VALID,93.5391,VALID,0,VALID,24.0701,VALID,112,VALID,0,
2010-04-01, 01:19:04,VALID,1001.97,VALID,0,VALID,93.5086,VALID,0,VALID,24.1092,VALID,109,VALID,0,
2010-04-01, 01:20:04,VALID,1001.93,VALID,0,VALID,93.4552,VALID,0,VALID,24.1092,VALID,104,VALID,0.322266,
2010-04-01, 01:21:04,VALID,1001.94,VALID,0,VALID,93.4018,VALID,0,VALID,24.0701,VALID,102,VALID,0.800391,
2010-04-01, 01:22:04,VALID,1001.93,VALID,0,VALID,93.3789,VALID,0,VALID,24.0329,VALID,103,VALID,1.01563,
2010-04-01, 01:23:04,VALID,1001.93,VALID,0,VALID,93.3713,VALID,0,VALID,23.9921,VALID,103,VALID,0.8375,
2010-04-01, 01:24:04,VALID,1001.94,VALID,0,VALID,93.3179,VALID,0,VALID,23.9336,VALID,103,VALID,0.557422,
2010-04-01, 01:25:04,VALID,1001.95,VALID,0,VALID,93.2797,VALID,0,VALID,23.875,VALID,103,VALID,0.323047,
2010-04-01, 01:26:04,VALID,1001.95,VALID,0,VALID,93.1577,VALID,0,VALID,23.7793,VALID,103,VALID,0.299219,
2010-04-01, 01:27:04,VALID,1001.97,VALID,0,VALID,93.2568,VALID,0,VALID,23.7189,VALID,103,VALID,0.228516,
2010-04-01, 01:28:04,VALID,1001.96,VALID,0,VALID,93.3331,VALID,0,VALID,23.7207,VALID,103,VALID,0.21875,
2010-04-01, 01:29:04,VALID,1001.97,VALID,0,VALID,93.4094,VALID,0,VALID,23.7189,VALID,103,VALID,0.233984,
2010-04-01, 01:30:04,VALID,1001.96,VALID,0,VALID,93.4628,VALID,0,VALID,23.7793,VALID,103,VALID,0,
2010-04-01, 01:31:04,VALID,1001.98,VALID,0,VALID,93.4018,VALID,0,VALID,23.7384,VALID,103,VALID,0,
2010-04-01, 01:32:04,VALID,1001.98,VALID,0,VALID,93.3942,VALID,0,VALID,23.7402,VALID,103,VALID,0,
2010-04-01, 01:33:04,VALID,1001.97,VALID,0,VALID,93.4018,VALID,0,VALID,23.7207,VALID,103,VALID,0,
2010-04-01, 01:34:04,VALID,1001.93,VALID,0,VALID,93.4323,VALID,0,VALID,23.6799,VALID,103,VALID,0,
2010-04-01, 01:35:04,VALID,1001.98,VALID,0,VALID,93.4171,VALID,0,VALID,23.7207,VALID,103,VALID,0,
2010-04-01, 01:36:04,VALID,1001.94,VALID,0,VALID,93.4628,VALID,0,VALID,23.7402,VALID,103,VALID,0,
2010-04-01, 01:37:04,VALID,1001.95,VALID,0,VALID,93.4476,VALID,0,VALID,23.7207,VALID,103,VALID,0,
2010-04-01, 01:38:04,VALID,1001.95,VALID,0,VALID,93.5391,VALID,0,VALID,23.7402,VALID,103,VALID,0,
2010-04-01, 01:39:04,VALID,1001.96,VALID,0,VALID,93.5926,VALID,0,VALID,23.797,VALID,103,VALID,0,
2010-04-01, 01:40:04,VALID,1001.98,VALID,0,VALID,93.6307,VALID,0,VALID,23.8573,VALID,103,VALID,0.537891,
2010-04-01, 01:41:04,VALID,1001.96,VALID,0,VALID,93.6383,VALID,0,VALID,23.8963,VALID,103,VALID,0.509375,
2010-04-01, 01:42:04,VALID,1001.97,VALID,0,VALID,93.562,VALID,0,VALID,23.875,VALID,64,VALID,0.634375,
2010-04-01, 01:43:04,VALID,1001.98,VALID,0,VALID,93.4934,VALID,0,VALID,23.8378,VALID,62,VALID,0.587891,
2010-04-01, 01:44:04,VALID,1001.97,VALID,0,VALID,93.4857,VALID,0,VALID,23.7988,VALID,62,VALID,0.430469,
2010-04-01, 01:45:04,VALID,1001.95,VALID,0,VALID,93.4247,VALID,0,VALID,23.7402,VALID,62,VALID,0.248047,
2010-04-01, 01:46:04,VALID,1001.95,VALID,0,VALID,93.44,VALID,0,VALID,23.7012,VALID,62,VALID,0,
2010-04-01, 01:47:04,VALID,1001.93,VALID,0,VALID,93.5163,VALID,0,VALID,23.6799,VALID,62,VALID,0,
2010-04-01, 01:48:04,VALID,1001.91,VALID,0,VALID,93.5468,VALID,0,VALID,23.7207,VALID,62,VALID,0,
2010-04-01, 01:49:04,VALID,1001.92,VALID,0,VALID,93.6078,VALID,0,VALID,23.7402,VALID,62,VALID,0,
2010-04-01, 01:50:04,VALID,1001.91,VALID,0,VALID,93.6078,VALID,0,VALID,23.7597,VALID,62,VALID,0,
2010-04-01, 01:51:04,VALID,1001.9,VALID,0,VALID,93.6231,VALID,0,VALID,23.7793,VALID,62,VALID,0,
2010-04-01, 01:52:04,VALID,1001.89,VALID,0,VALID,93.6383,VALID,0,VALID,23.7988,VALID,62,VALID,0,
2010-04-01, 01:53:04,VALID,1001.87,VALID,0,VALID,93.6154,VALID,0,VALID,23.8183,VALID,62,VALID,0,
2010-04-01, 01:54:04,VALID,1001.86,VALID,0,VALID,93.5773,VALID,0,VALID,23.8183,VALID,62,VALID,0,
2010-04-01, 01:55:04,VALID,1001.83,VALID,0,VALID,93.6154,VALID,0,VALID,23.8378,VALID,62,VALID,0,
2010-04-01, 01:56:04,VALID,1001.85,VALID,0,VALID,93.5773,VALID,0,VALID,23.8183,VALID,62,VALID,0,
2010-04-01, 01:57:04,VALID,1001.84,VALID,0,VALID,93.5849,VALID,0,VALID,23.8183,VALID,62,VALID,0,
2010-04-01, 01:58:04,VALID,1001.85,VALID,0,VALID,93.5926,VALID,0,VALID,23.8183,VALID,62,VALID,0,
2010-04-01, 01:59:04,VALID,1001.89,VALID,0,VALID,93.6078,VALID,0,VALID,23.8378,VALID,62,VALID,0,
2010-04-01, 02:00:04,VALID,1001.89,VALID,0,VALID,93.6154,VALID,0,VALID,23.8378,VALID,62,VALID,0,
2010-04-01, 02:01:04,VALID,1001.87,VALID,0,VALID,93.6154,VALID,0,VALID,23.8573,VALID,62,VALID,0.0976563,
2010-04-01, 02:02:04,VALID,1001.86,VALID,0,VALID,93.5926,VALID,0,VALID,23.8573,VALID,63,VALID,0.392969,
2010-04-01, 02:03:04,VALID,1001.86,VALID,0,VALID,93.5468,VALID,0,VALID,23.8183,VALID,63,VALID,0.316406,
2010-04-01, 02:04:04,VALID,1001.85,VALID,0,VALID,93.5926,VALID,0,VALID,23.7988,VALID,63,VALID,0.348047,
2010-04-01, 02:05:04,VALID,1001.79,VALID,0,VALID,93.6002,VALID,0,VALID,23.8183,VALID,63,VALID,0.259375,
2010-04-01, 02:06:04,VALID,1001.78,VALID,0,VALID,93.6078,VALID,0,VALID,23.8183,VALID,63,VALID,0.305859,
2010-04-01, 02:07:04,VALID,1001.73,VALID,0,VALID,93.6078,VALID,0,VALID,23.8378,VALID,63,VALID,0.202734,
2010-04-01, 02:08:04,VALID,1001.7,VALID,0,VALID,93.5849,VALID,0,VALID,23.8183,VALID,63,VALID,0,
2010-04-01, 02:09:04,VALID,1001.69,VALID,0,VALID,93.5849,VALID,0,VALID,23.7988,VALID,63,VALID,0,
2010-04-01, 02:10:04,VALID,1001.69,VALID,0,VALID,93.6078,VALID,0,VALID,23.7988,VALID,63,VALID,0,
2010-04-01, 02:11:04,VALID,1001.69,VALID,0,VALID,93.5697,VALID,0,VALID,23.7793,VALID,62,VALID,0,
2010-04-01, 02:12:04,VALID,1001.73,VALID,0,VALID,93.5773,VALID,0,VALID,23.7597,VALID,63,VALID,0,
2010-04-01, 02:13:04,VALID,1001.77,VALID,0,VALID,93.6231,VALID,0,VALID,23.7793,VALID,63,VALID,0,
2010-04-01, 02:14:04,VALID,1001.75,VALID,0,VALID,93.6612,VALID,0,VALID,23.7775,VALID,63,VALID,0,
2010-04-01, 02:15:04,VALID,1001.76,VALID,0,VALID,93.6688,VALID,0,VALID,23.7988,VALID,63,VALID,0,
2010-04-01, 02:16:04,VALID,1001.78,VALID,0,VALID,93.7146,VALID,0,VALID,23.8573,VALID,64,VALID,0.528906,
2010-04-01, 02:17:04,VALID,1001.79,VALID,0,VALID,93.707,VALID,0,VALID,23.8768,VALID,89,VALID,0.426172,
2010-04-01, 02:18:04,VALID,1001.79,VALID,0,VALID,93.6841,VALID,0,VALID,23.9159,VALID,89,VALID,0.338281,
2010-04-01, 02:19:04,VALID,1001.76,VALID,0,VALID,93.6002,VALID,0,VALID,23.8573,VALID,89,VALID,0,
2010-04-01, 02:20:04,VALID,1001.77,VALID,0,VALID,93.5773,VALID,0,VALID,23.7988,VALID,89,VALID,0,
2010-04-01, 02:21:04,VALID,1001.76,VALID,0,VALID,93.5849,VALID,0,VALID,23.7597,VALID,89,VALID,0,
2010-04-01, 02:22:04,VALID,1001.74,VALID,0,VALID,93.6841,VALID,0,VALID,23.8006,VALID,89,VALID,0,
2010-04-01, 02:23:04,VALID,1001.76,VALID,0,VALID,93.7375,VALID,0,VALID,23.8183,VALID,89,VALID,0.522266,
2010-04-01, 02:24:04,VALID,1001.72,VALID,0,VALID,93.7146,VALID,0,VALID,23.8573,VALID,89,VALID,0.130469,
2010-04-01, 02:25:04,VALID,1001.76,VALID,0,VALID,93.6536,VALID,0,VALID,23.8378,VALID,89,VALID,0,
2010-04-01, 02:26:04,VALID,1001.77,VALID,0,VALID,93.6383,VALID,0,VALID,23.8183,VALID,89,VALID,0,
2010-04-01, 02:27:04,VALID,1001.74,VALID,0,VALID,93.6383,VALID,0,VALID,23.8183,VALID,89,VALID,0,
2010-04-01, 02:28:04,VALID,1001.73,VALID,0,VALID,93.6307,VALID,0,VALID,23.8183,VALID,89,VALID,0,
2010-04-01, 02:29:04,VALID,1001.72,VALID,0,VALID,93.6841,VALID,0,VALID,23.8183,VALID,89,VALID,0,
2010-04-01, 02:30:04,VALID,1001.69,VALID,0,VALID,93.7146,VALID,0,VALID,23.8573,VALID,89,VALID,0,
2010-04-01, 02:31:04,VALID,1001.7,VALID,0,VALID,93.7146,VALID,0,VALID,23.8768,VALID,89,VALID,0,
2010-04-01, 02:32:04,VALID,1001.66,VALID,0,VALID,93.6994,VALID,0,VALID,23.8963,VALID,89,VALID,0,
2010-04-01, 02:33:04,VALID,1001.64,VALID,0,VALID,93.6078,VALID,0,VALID,23.8573,VALID,89,VALID,0,
2010-04-01, 02:34:04,VALID,1001.63,VALID,0,VALID,93.5926,VALID,0,VALID,23.8378,VALID,89,VALID,0,
2010-04-01, 02:35:04,VALID,1001.62,VALID,0,VALID,93.6688,VALID,0,VALID,23.8183,VALID,89,VALID,0,
2010-04-01, 02:36:04,VALID,1001.61,VALID,0,VALID,93.6688,VALID,0,VALID,23.797,VALID,89,VALID,0,
2010-04-01, 02:37:04,VALID,1001.58,VALID,0,VALID,93.646,VALID,0,VALID,23.7988,VALID,89,VALID,0,
2010-04-01, 02:38:04,VALID,1001.56,VALID,0,VALID,93.7146,VALID,0,VALID,23.8378,VALID,89,VALID,0,
2010-04-01, 02:39:04,VALID,1001.57,VALID,0,VALID,93.5391,VALID,0,VALID,23.7402,VALID,89,VALID,0,
2010-04-01, 02:40:04,VALID,1001.56,VALID,0,VALID,93.5849,VALID,0,VALID,23.7207,VALID,89,VALID,0,
2010-04-01, 02:41:04,VALID,1001.53,VALID,0,VALID,93.5926,VALID,0,VALID,23.7207,VALID,89,VALID,0,
2010-04-01, 02:42:04,VALID,1001.53,VALID,0,VALID,93.6383,VALID,0,VALID,23.7012,VALID,89,VALID,0,
2010-04-01, 02:43:04,VALID,1001.53,VALID,0,VALID,93.6307,VALID,0,VALID,23.7012,VALID,89,VALID,0,
2010-04-01, 02:44:04,VALID,1001.51,VALID,0,VALID,93.6154,VALID,0,VALID,23.6622,VALID,89,VALID,0,
2010-04-01, 02:45:04,VALID,1001.48,VALID,0,VALID,93.5544,VALID,0,VALID,23.6019,VALID,89,VALID,0,
2010-04-01, 02:46:04,VALID,1001.49,VALID,0,VALID,93.5468,VALID,0,VALID,23.5628,VALID,89,VALID,0,
2010-04-01, 02:47:04,VALID,1001.49,VALID,0,VALID,93.562,VALID,0,VALID,23.5238,VALID,89,VALID,0,
2010-04-01, 02:48:04,VALID,1001.53,VALID,0,VALID,93.646,VALID,0,VALID,23.5823,VALID,89,VALID,0,
2010-04-01, 02:49:04,VALID,1001.54,VALID,0,VALID,93.6994,VALID,0,VALID,23.6409,VALID,89,VALID,0,
2010-04-01, 02:50:04,VALID,1001.55,VALID,0,VALID,93.6994,VALID,0,VALID,23.7012,VALID,89,VALID,0,
2010-04-01, 02:51:04,VALID,1001.55,VALID,0,VALID,93.6994,VALID,0,VALID,23.7012,VALID,89,VALID,0,
2010-04-01, 02:52:04,VALID,1001.49,VALID,0,VALID,93.768,VALID,0,VALID,23.6994,VALID,89,VALID,0,
2010-04-01, 02:53:04,VALID,1001.49,VALID,0,VALID,93.5926,VALID,0,VALID,23.6604,VALID,89,VALID,0,
2010-04-01, 02:54:04,VALID,1001.46,VALID,0,VALID,93.7375,VALID,0,VALID,23.6409,VALID,89,VALID,0,
2010-04-01, 02:55:04,VALID,1001.49,VALID,0,VALID,93.7375,VALID,0,VALID,23.6604,VALID,89,VALID,0,
2010-04-01, 02:56:04,VALID,1001.48,VALID,0,VALID,93.768,VALID,0,VALID,23.6604,VALID,89,VALID,0,
2010-04-01, 02:57:04,VALID,1001.47,VALID,0,VALID,93.7223,VALID,0,VALID,23.6799,VALID,89,VALID,0,
2010-04-01, 02:58:04,VALID,1001.49,VALID,0,VALID,93.6536,VALID,0,VALID,23.6409,VALID,89,VALID,0,
2010-04-01, 02:59:04,VALID,1001.53,VALID,0,VALID,93.5926,VALID,0,VALID,23.5628,VALID,89,VALID,0,
2010-04-01, 03:00:04,VALID,1001.52,VALID,0,VALID,93.5544,VALID,0,VALID,23.5043,VALID,89,VALID,0,
2010-04-01, 03:01:04,VALID,1001.53,VALID,0,VALID,93.6231,VALID,0,VALID,23.4866,VALID,89,VALID,0,
2010-04-01, 03:02:04,VALID,1001.49,VALID,0,VALID,93.7375,VALID,0,VALID,23.5256,VALID,89,VALID,0,
2010-04-01, 03:03:04,VALID,1001.52,VALID,0,VALID,93.6688,VALID,0,VALID,23.4848,VALID,89,VALID,0,
2010-04-01, 03:04:04,VALID,1001.51,VALID,0,VALID,93.646,VALID,0,VALID,23.4263,VALID,89,VALID,0,
2010-04-01, 03:05:04,VALID,1001.52,VALID,0,VALID,93.6612,VALID,0,VALID,23.4263,VALID,89,VALID,0,
2010-04-01, 03:06:04,VALID,1001.53,VALID,0,VALID,93.6994,VALID,0,VALID,23.4475,VALID,89,VALID,0,
2010-04-01, 03:07:04,VALID,1001.51,VALID,0,VALID,93.7146,VALID,0,VALID,23.4458,VALID,89,VALID,0,
2010-04-01, 03:08:04,VALID,1001.51,VALID,0,VALID,93.6994,VALID,0,VALID,23.4458,VALID,89,VALID,0,
2010-04-01, 03:09:04,VALID,1001.5,VALID,0,VALID,93.6917,VALID,0,VALID,23.4263,VALID,89,VALID,0,
2010-04-01, 03:10:04,VALID,1001.47,VALID,0,VALID,93.7146,VALID,0,VALID,23.4458,VALID,89,VALID,0,
2010-04-01, 03:11:04,VALID,1001.46,VALID,0,VALID,93.7528,VALID,0,VALID,23.4848,VALID,89,VALID,0,
2010-04-01, 03:12:04,VALID,1001.42,VALID,0,VALID,93.8214,VALID,0,VALID,23.5256,VALID,89,VALID,0,
2010-04-01, 03:13:04,VALID,1001.39,VALID,0,VALID,93.8062,VALID,0,VALID,23.5628,VALID,89,VALID,0,
2010-04-01, 03:14:04,VALID,1001.39,VALID,0,VALID,93.8443,VALID,0,VALID,23.6019,VALID,89,VALID,0,
2010-04-01, 03:15:04,VALID,1001.41,VALID,0,VALID,93.8214,VALID,0,VALID,23.6409,VALID,89,VALID,0,
2010-04-01, 03:16:04,VALID,1001.44,VALID,0,VALID,93.8672,VALID,0,VALID,23.6817,VALID,89,VALID,0,
2010-04-01, 03:17:04,VALID,1001.42,VALID,0,VALID,93.8367,VALID,0,VALID,23.7189,VALID,89,VALID,0,
2010-04-01, 03:18:04,VALID,1001.4,VALID,0,VALID,93.852,VALID,0,VALID,23.7597,VALID,89,VALID,0,
2010-04-01, 03:19:04,VALID,1001.42,VALID,0,VALID,93.7528,VALID,0,VALID,23.7189,VALID,89,VALID,0,
2010-04-01, 03:20:04,VALID,1001.36,VALID,0,VALID,93.7375,VALID,0,VALID,23.6799,VALID,89,VALID,0,
2010-04-01, 03:21:04,VALID,1001.35,VALID,0,VALID,93.7375,VALID,0,VALID,23.6409,VALID,89,VALID,0,
2010-04-01, 03:22:04,VALID,1001.36,VALID,0,VALID,93.7146,VALID,0,VALID,23.6019,VALID,89,VALID,0,
2010-04-01, 03:23:04,VALID,1001.35,VALID,0,VALID,93.7833,VALID,0,VALID,23.6019,VALID,89,VALID,0,
2010-04-01, 03:24:04,VALID,1001.36,VALID,0,VALID,93.768,VALID,0,VALID,23.6214,VALID,89,VALID,0,
2010-04-01, 03:25:04,VALID,1001.31,VALID,0,VALID,93.7757,VALID,0,VALID,23.6214,VALID,89,VALID,0,
2010-04-01, 03:26:04,VALID,1001.28,VALID,0,VALID,93.768,VALID,0,VALID,23.6214,VALID,89,VALID,0,
2010-04-01, 03:27:04,VALID,1001.26,VALID,0,VALID,93.7909,VALID,0.112286,VALID,23.6214,VALID,89,VALID,0,
2010-04-01, 03:28:04,VALID,1001.24,VALID,0,VALID,93.7375,VALID,0,VALID,23.6214,VALID,89,VALID,0,
2010-04-01, 03:29:04,VALID,1001.25,VALID,0,VALID,93.8062,VALID,0,VALID,23.6214,VALID,89,VALID,0,
2010-04-01, 03:30:04,VALID,1001.23,VALID,0,VALID,93.7528,VALID,0,VALID,23.6019,VALID,90,VALID,0.726563,
2010-04-01, 03:31:04,VALID,1001.29,VALID,0,VALID,93.7146,VALID,0,VALID,23.6036,VALID,90,VALID,0.749219,
2010-04-01, 03:32:04,VALID,1001.28,VALID,0,VALID,93.852,VALID,0,VALID,23.6019,VALID,75,VALID,0.84375,
2010-04-01, 03:33:04,VALID,1001.33,VALID,0,VALID,93.8367,VALID,0,VALID,23.6409,VALID,62,VALID,0.665234,
2010-04-01, 03:34:04,VALID,1001.36,VALID,0,VALID,93.6688,VALID,0,VALID,23.5628,VALID,31,VALID,0.80625,
2010-04-01, 03:35:04,VALID,1001.34,VALID,0,VALID,93.8138,VALID,0,VALID,23.5238,VALID,30,VALID,0.782422,
2010-04-01, 03:36:04,VALID,1001.34,VALID,0,VALID,93.8367,VALID,0,VALID,23.6036,VALID,8,VALID,0.794922,
2010-04-01, 03:37:04,VALID,1001.32,VALID,0,VALID,93.8214,VALID,0,VALID,23.6427,VALID,332,VALID,0,
2010-04-01, 03:38:04,VALID,1001.33,VALID,0,VALID,93.8748,VALID,0,VALID,23.6604,VALID,332,VALID,0,
2010-04-01, 03:39:04,VALID,1001.31,VALID,0,VALID,93.852,VALID,0,VALID,23.6994,VALID,332,VALID,0,
2010-04-01, 03:40:04,VALID,1001.29,VALID,0,VALID,93.8443,VALID,0,VALID,23.7012,VALID,332,VALID,0,
2010-04-01, 03:41:04,VALID,1001.28,VALID,0,VALID,93.8291,VALID,0,VALID,23.6994,VALID,332,VALID,0,
2010-04-01, 03:42:04,VALID,1001.33,VALID,0,VALID,93.8062,VALID,0,VALID,23.6799,VALID,332,VALID,0,
2010-04-01, 03:43:04,VALID,1001.33,VALID,0,VALID,93.8291,VALID,0,VALID,23.6409,VALID,332,VALID,0.0773437,
2010-04-01, 03:44:04,VALID,1001.33,VALID,0,VALID,93.7985,VALID,0,VALID,23.6214,VALID,342,VALID,0.64375,
2010-04-01, 03:45:04,VALID,1001.33,VALID,0,VALID,93.7375,VALID,0,VALID,23.5823,VALID,349,VALID,0.687891,
2010-04-01, 03:46:04,VALID,1001.3,VALID,0,VALID,93.7528,VALID,0,VALID,23.5646,VALID,350,VALID,0.638281,
2010-04-01, 03:47:04,VALID,1001.3,VALID,0,VALID,93.7146,VALID,0,VALID,23.5043,VALID,350,VALID,0.642578,
2010-04-01, 03:48:04,VALID,1001.3,VALID,0,VALID,93.7909,VALID,0,VALID,23.4848,VALID,350,VALID,0.517578,
2010-04-01, 03:49:04,VALID,1001.31,VALID,0,VALID,93.7604,VALID,0,VALID,23.4866,VALID,350,VALID,0.574609,
2010-04-01, 03:50:04,VALID,1001.34,VALID,0,VALID,93.8367,VALID,0,VALID,23.4866,VALID,350,VALID,0.133203,
2010-04-01, 03:51:04,VALID,1001.33,VALID,0,VALID,93.8977,VALID,0,VALID,23.5628,VALID,350,VALID,0,
2010-04-01, 03:52:04,VALID,1001.31,VALID,0,VALID,93.8748,VALID,0,VALID,23.6232,VALID,8,VALID,0,
2010-04-01, 03:53:04,VALID,1001.31,VALID,0,VALID,93.8596,VALID,0,VALID,23.6019,VALID,20,VALID,0,
2010-04-01, 03:54:04,VALID,1001.28,VALID,0,VALID,93.8901,VALID,0,VALID,23.6232,VALID,20,VALID,0,
2010-04-01, 03:55:04,VALID,1001.29,VALID,0,VALID,93.7757,VALID,0,VALID,23.5841,VALID,21,VALID,0,
2010-04-01, 03:56:04,VALID,1001.27,VALID,0,VALID,93.7451,VALID,0,VALID,23.5256,VALID,21,VALID,0,
2010-04-01, 03:57:04,VALID,1001.29,VALID,0,VALID,93.7909,VALID,0,VALID,23.4866,VALID,21,VALID,0,
2010-04-01, 03:58:04,VALID,1001.3,VALID,0,VALID,93.8214,VALID,0,VALID,23.4866,VALID,21,VALID,0,